Hoonah, AK

2:28 AM AKDT on June 23, 2017 (GMT -0800)
Hoonah

Weather History for PAOH - November, 2012

Change the Weather History Date:

Tuesday, November 27, 2012

  Actual Average Record
Temperature  
Mean Temperature 32 °F -  
Max Temperature 36 °F 35 °F 51 °F (2002)
Min Temperature 28 °F 29 °F 1 °F (2006)
Degree Days  
Heating Degree Days 33    
Moisture  
Dew Point 26 °F    
Average Humidity 77    
Maximum Humidity 85    
Minimum Humidity 63    
Precipitation  
Precipitation 0.00 in - - ()
Sea Level Pressure  
Sea Level Pressure 30.00 in    
Wind  
Wind Speed 7 mph (ENE)    
Max Wind Speed 10 mph    
Max Gust Speed -    
Visibility 10 miles    
Events      
Averages and records for this station are not official NWS values.
T = Trace of Precipitation, MM = Missing Value Source: NWS Daily Summary

Daily Weather History Graph

Daily Weather History Graph

Search for Another Location

Airport or City:

Trip Planner

Search our weather history database for the weather conditions in past years. The results will help you decide how hot, cold, wet, or windy it might be!

Date:

Astronomy

Nov. 27, 2012 Rise Set
Actual Time 8:15 AM AKST 3:22 PM AKST
Civil Twilight 7:27 AM AKST 4:11 PM AKST
Nautical Twilight 6:36 AM AKST 5:02 PM AKST
Astronomical Twilight 5:48 AM AKST 5:49 PM AKST
Moon 3:02 PM AKST (11/27) 7:23 AM AKST (11/27)
Length of Visible Light 8h 44m
Length of Day
7h 06m
Full, 100% of the Moon is Illuminated
Nov 27
Full
Nov 28
Full
Dec 6
Last Quarter
Dec 12
New
Dec 19
First Quarter

Hourly Weather History & Observations

Time (AKST) Temp. Windchill Dew Point Humidity Pressure Visibility Wind Dir Wind Speed Gust Speed Precip Events Conditions
12:56 AM 29.1 °F 22.1 °F 25.2 °F 85% 30.18 in 10.0 mi ENE 6.9 mph - N/A   Clear
1:56 AM 29.1 °F 21.3 °F 25.2 °F 85% 30.16 in 10.0 mi East 8.1 mph - N/A   Clear
2:56 AM 30.0 °F 22.4 °F 24.1 °F 79% 30.14 in 10.0 mi East 8.1 mph - N/A   Clear
3:56 AM 29.1 °F 23.0 °F 25.2 °F 85% 30.11 in 10.0 mi NE 5.8 mph - N/A   Clear
4:56 AM 29.1 °F 22.1 °F 24.1 °F 81% 30.09 in 10.0 mi East 6.9 mph - N/A   Clear
5:56 AM 29.1 °F 24.1 °F 24.1 °F 81% 30.08 in 10.0 mi East 4.6 mph - N/A   Clear
6:56 AM 28.0 °F 20.8 °F 24.1 °F 85% 30.06 in 10.0 mi East 6.9 mph - N/A   Clear
7:56 AM 29.1 °F 22.1 °F 25.2 °F 85% 30.04 in 10.0 mi East 6.9 mph - N/A   Clear
8:56 AM 30.0 °F 24.1 °F 25.2 °F 82% 30.04 in 10.0 mi East 5.8 mph - N/A   Clear
9:56 AM 30.0 °F 22.4 °F 25.2 °F 82% 30.04 in 10.0 mi East 8.1 mph - N/A   Clear
10:56 AM 31.1 °F 23.7 °F 25.2 °F 79% 30.03 in 10.0 mi East 8.1 mph - N/A   Clear
11:56 AM 32.0 °F 24.8 °F 26.1 °F 79% 30.01 in 10.0 mi East 8.1 mph - N/A   Clear
12:56 PM 32.0 °F 25.6 °F 27.1 °F 82% 29.98 in 10.0 mi East 6.9 mph - N/A   Clear
1:56 PM 32.9 °F 25.3 °F 26.1 °F 76% 29.96 in 10.0 mi East 9.2 mph - N/A   Clear
2:56 PM 32.9 °F 24.7 °F 27.1 °F 79% 29.94 in 10.0 mi ENE 10.4 mph - N/A   Clear
3:56 PM 32.9 °F 25.9 °F 27.1 °F 79% 29.94 in 10.0 mi East 8.1 mph - N/A   Clear
4:56 PM 32.9 °F 25.9 °F 26.1 °F 76% 29.93 in 10.0 mi ENE 8.1 mph - N/A   Clear
5:56 PM 34.0 °F 27.2 °F 26.1 °F 73% 29.92 in 10.0 mi East 8.1 mph - N/A   Clear
6:56 PM 34.9 °F 29.0 °F 26.1 °F 70% 29.91 in 10.0 mi East 6.9 mph - N/A   Clear
7:56 PM 34.9 °F 29.0 °F 27.1 °F 73% 29.91 in 10.0 mi ENE 6.9 mph - N/A   Clear
8:56 PM 36.0 °F 31.1 °F 26.1 °F 67% 29.91 in 10.0 mi ENE 5.8 mph - N/A   Clear
9:56 PM 36.0 °F 30.3 °F 25.2 °F 65% 29.90 in 10.0 mi East 6.9 mph - N/A   Clear
10:56 PM 36.9 °F 32.2 °F 25.2 °F 63% 29.91 in 10.0 mi ENE 5.8 mph - N/A   Clear
11:56 PM 36.0 °F 31.1 °F 25.2 °F 65% 29.90 in 10.0 mi ENE 5.8 mph - N/A   Clear